AKST,Max TemperatureF,Mean TemperatureF,Min TemperatureF,Max Dew PointF,MeanDew PointF,Min DewpointF,Max Humidity, Mean Humidity, Min Humidity, Max Sea Level PressureIn, Mean Sea Level PressureIn, Min Sea Level PressureIn, Max VisibilityMiles, Mean VisibilityMiles, Min VisibilityMiles, Max Wind SpeedMPH, Mean Wind SpeedMPH, Max Gust SpeedMPH,PrecipitationIn, CloudCover, Events, WindDirDegrees
2012-1-1,39,34,30,36,30,27,93,84,75,29.86,29.48,29.17,10,7,2,17,11,29,0.00,8,,111
2012-1-2,41,36,30,37,31,27,93,83,70,29.74,29.59,29.29,10,10,10,12,8,20,0.00,5,,138
2012-1-3,42,36,30,39,31,27,93,82,75,29.66,29.38,29.21,10,8,2,17,7,23,0.00,8,,90
2012-1-4,44,40,35,39,35,30,93,87,76,29.26,29.10,28.86,10,9,5,14,8,25,0.00,8,,108
2012-1-5,39,34,30,34,29,25,93,78,60,30.09,29.81,29.40,10,10,9,15,8,23,0.00,5,,114
2012-1-6,37,34,32,34,28,25,87,77,65,30.02,29.83,29.72,10,10,5,18,12,28,0.00,7,,111
2012-1-7,44,40,35,41,34,30,93,85,81,29.81,29.46,29.31,10,7,3,25,15,34,0.00,8,,122
2012-1-8,41,39,37,37,35,32,87,85,81,29.69,29.59,29.43,10,10,8,18,12,26,0.00,7,,142
2012-1-9,37,34,30,34,25,21,93,73,60,30.34,30.01,29.66,10,10,9,16,7,24,0.00,6,,259
2012-1-10,32,30,28,25,22,19,80,72,64,30.59,30.54,30.45,10,9,2,16,8,26,0.00,8,,106
2012-1-11,35,34,32,32,29,25,87,83,70,30.35,30.23,30.14,10,6,2,22,16,29,0.00,8,,119
2012-1-12,39,37,33,36,32,27,93,83,75,30.00,29.81,29.64,10,10,5,22,15,32,0.00,8,,141
2012-1-13,33,30,28,27,25,25,86,82,70,30.12,30.02,29.87,10,8,0,14,8,17,0.00,7,,124
2012-1-14,28,24,19,27,15,9,93,66,54,30.22,30.01,29.85,10,10,2,16,6,25,0.00,2,,344
2012-1-15,19,17,15,5,1,-4,58,47,41,30.46,30.43,30.38,10,10,5,20,10,37,0.00,0,,342
2012-1-16,12,10,8,-4,-7,-9,52,46,41,30.49,30.47,30.44,10,10,10,15,9,30,0.00,2,,5
2012-1-17,12,9,6,-2,-5,-9,57,51,41,30.44,30.36,30.30,10,10,10,16,9,24,0.00,5,,352
2012-1-18,19,14,10,1,0,-2,62,53,46,30.31,30.16,30.00,10,10,10,12,7,22,0.00,1,,337
2012-1-19,19,14,8,7,2,0,73,60,53,29.97,29.83,29.65,10,10,9,7,4,,0.00,2,,53
2012-1-20,24,22,19,19,17,9,86,78,58,29.51,29.23,28.90,10,2,0,20,9,29,0.00,8,,44
2012-1-21,33,28,24,30,24,19,87,81,74,28.80,28.74,28.71,10,4,1,25,13,39,0.00,8,,84
2012-1-22,33,30,28,30,28,25,93,85,80,29.24,29.17,29.07,10,8,1,17,11,23,0.00,6,,116
2012-1-23,33,32,30,30,28,27,93,85,75,29.30,29.22,29.15,10,7,1,14,9,23,0.00,7,,118
2012-1-24,37,35,33,34,31,28,93,86,81,29.13,28.79,28.67,10,7,2,16,9,25,0.00,8,,99
2012-1-25,37,34,30,34,28,27,93,85,75,29.51,29.28,28.53,10,6,0,18,11,25,0.00,8,,158
2012-1-26,30,27,24,27,22,19,93,79,69,29.94,29.79,29.61,10,7,0,18,7,28,0.00,7,,168
2012-1-27,32,29,26,25,23,19,86,79,60,30.19,30.05,29.85,10,10,4,12,7,,0.00,7,,136
2012-1-28,33,30,28,28,27,25,87,82,80,30.06,29.56,29.23,10,5,1,13,8,20,0.00,8,,75
2012-1-29,35,34,32,34,31,28,100,88,81,29.26,29.23,29.21,10,6,0,9,5,,0.00,8,,94
2012-1-30,37,34,30,34,30,28,93,86,81,29.46,29.40,29.33,10,8,2,15,7,21,0.00,7,,110
2012-1-31,37,35,33,36,33,30,93,88,81,29.63,29.46,29.42,10,9,3,15,9,24,0.00,8,,119